AirNav   Phillips 66 Aviation Fuel
 
 361 users online  

5P5 Presho Municipal Airport
Presho, South Dakota, USA

GOING TO PRESHO?


FAA INFORMATION EFFECTIVE 11 OCTOBER 2018

Location

FAA Identifier: 5P5
Lat/Long: 43-54-21.5900N / 100-02-12.0500W
43-54.359833N / 100-02.200833W
43.9059972 / -100.0366806
(estimated)
Elevation: 1760 ft. / 536.4 m (surveyed)
Variation: 09E (1985)
From city: 1 mile E of PRESHO, SD
Time zone: UTC -5 (UTC -6 during Standard Time)
Zip code: 57568

Airport Operations

Airport use: Open to the public
Control tower: no
ARTCC: MINNEAPOLIS CENTER
FSS: HURON FLIGHT SERVICE STATION
NOTAMs facility: HON (NOTAM-D service available)
Attendance: UNATNDD
Wind indicator: lighted
Segmented circle: no
Lights: ACTVT LIRL RY 10/28 - CTAF.
Beacon: white-green (lighted land airport)
Operates sunset to sunrise.

Airport Communications

CTAF: 122.9

Nearby radio navigation aids

VOR radial/distance  VOR name  Freq  Var
ISDr327/(27.8)WINNER VOR112.8008E
PIRr158/29.8PIERRE VORTAC112.5011E

Airport Services

Parking: tiedowns
Airframe service: NONE
Powerplant service: NONE
Bottled oxygen: NONE
Bulk oxygen: NONE

Runway Information

Runway 10/28

Dimensions: 3350 x 150 ft. / 1021 x 46 m
Surface: turf/gravel, in fair condition
CNTR 52 FT GRAVEL PLUS GRAVEL TURNAROUNDS.
Runway edge lights: low intensity
Runway edge markings: 10/28 MKD WITH BLACK AND WHITE CONES.
Gradient: W
RUNWAY 10  RUNWAY 28
Latitude: 43-54.444167N43-54.275500N
Longitude: 100-02.563833W100-01.837833W
Elevation: 1756.0 ft.1742.0 ft.
Gradient: 0.4%0.4% UP
Traffic pattern: leftleft
Runway heading: 098 magnetic, 107 true278 magnetic, 287 true
Runway end identifier lights: nono
Obstructions: 15 ft. road, 300 ft. from runway, 20:1 slope to clear4 ft. fence, 110 ft. from runway, 27:1 slope to clear

Airport Ownership and Management from official FAA records

Ownership: Publicly-owned
Owner: CITY OF PRESHO
PO BOX 354
PRESHO, SD 57568
Phone 605-895-2337
Manager: DUSTIN SMITH
PO BOX 250
PRESHO, SD 57568
Phone 605-280-4641

Airport Operational Statistics

Aircraft based on the field: 11
Single engine airplanes: 10
Multi engine airplanes: 1
    
Aircraft operations: avg 44/week *
96% local general aviation
4% transient general aviation
* for 12-month period ending 02 May 2018

Additional Remarks

WILDLIFE & WATERFOWL ON & INVOF ARPT.

Instrument Procedures

There are no published instrument procedures at 5P5.

Some nearby airports with instrument procedures:

KPIR - Pierre Regional Airport (31 nm N)
9V9 - Chamberlain Municipal Airport (32 nm E)
KICR - Winner Regional Airport (32 nm S)
9D0 - Highmore Municipal Airport (46 nm NE)
98D - Onida Municipal Airport (48 nm N)
 
Loc | Ops | Rwys | IFR | FBO | Links
Com | Nav | Svcs | Stats | Notes

Mandan Aero Center
 
Area around 5P5 (Presho Municipal Airport)
 
Road maps at: MapQuest Bing Google
 
Aerial photo
WARNING: Photo may not be current or correct
Aerial photo of 5P5 (Presho Municipal Airport)
Photo by Steve Hamilton
Photo taken 29-Oct-2008

Do you have a better or more recent aerial photo of Presho Municipal Airport that you would like to share? If so, please send us your photo.

 
Sectional chart

 
Airport distance calculator
Flying to Presho Municipal Airport? Find the distance to fly.

From to 5P5

Sunrise and sunset
Times for 16-Oct-2018
 Local
(UTC-5)
 Zulu
(UTC)
Morning civil twilight07:2812:28
Sunrise07:5712:57
Sunset18:5523:55
Evening civil twilight19:2400:24

Current date and time
Zulu (UTC)  16-Oct-2018 08:13:01
Local (UTC-5)  16-Oct-2018 03:13:01
 
METAR
KPIR 
31nm N 
160753Z AUTO 28008KT 10SM OVC095 09/02 A3009 RMK AO2 SLP193 T00890022
KICR 
32nm S 
160753Z AUTO 27010KT 10SM CLR 07/M01 A3013 RMK AO2 SLP210 T00671006
K9V9 
32nm E 
160755Z AUTO 28010KT 10SM CLR 07/01 A3010 RMK AO2 T00660008
98D 
48nm N 
SuperAWOS
160735Z AUTO 00000KT 10SM 07/02 A3016
9D1 
49nm SE 
SuperAWOS
160735Z AUTO 29008KT 10SM 03/M01 A3020
TAF
KPIR 
31nm N 
160520Z 1606/1706 27010KT P6SM FEW250 FM161400 31011G18KT P6SM SCT090 FM170100 32007KT P6SM FEW200
NOTAMs
Click for the latest NOTAMs
NOTAMs are issued by the DoD/FAA and will open in a separate window not controlled by AirNav.

 

 
 

Would you like to see your business listed on this page?

 If your business provides an interesting product or service to pilots, flight crews, aircraft, or users of the Presho Municipal Airport, you should consider listing it here.  To start the listing process, click on the button below
 
Add a business
 

Other Pages about Presho Municipal Airport

Update a link
 
Copyright © AirNav, LLC. All rights reserved. Privacy Policy  Contact